KC5CAM-13 Weather Reports


Display with metric or nautical units.
time (UTC)temp
F
wind
direction
speed
MPH
gust
MPH
rain 1hr
in
rain 24hr
in
rain mn
in
humidity
%
barometer
mb
20260505230342 77 13 1.0 1.0 0.00 0.00 0.00 66 1006.0
20260505225839 78 328 1.0 1.0 0.00 0.00 0.00 66 1006.3
20260505225336 79 43 4.0 6.0 0.00 0.00 0.00 64 1006.2
20260505224831 79 346 5.0 6.0 0.00 0.00 0.00 65 1005.8
20260505224329 80 315 2.0 3.0 0.00 0.00 0.00 65 1005.9
20260505223826 81 339 1.0 1.0 0.00 0.00 0.00 64 1005.5
20260505223323 81 334 1.0 1.0 0.00 0.00 0.00 63 1005.2
20260505222818 82 330 1.0 1.0 0.00 0.00 0.00 62 1005.5
20260505222315 83 280 5.0 8.0 0.00 0.00 0.00 60 1005.3
20260505221813 83 332 1.0 1.0 0.00 0.00 0.00 61 1005.0
20260505221309 84 351 0.0 0.0 0.00 0.00 0.00 60 1005.0
20260505220806 85 328 4.0 6.0 0.00 0.00 0.00 56 1005.2
20260505220303 87 81 0.0 1.0 0.00 0.00 0.00 54 1005.0
20260505215801 87 320 1.0 1.0 0.00 0.00 0.00 54 1004.9
20260505215259 86 333 1.0 1.0 0.00 0.00 0.00 56 1004.7
20260505214756 85 302 1.0 2.0 0.00 0.00 0.00 57 1004.9
20260505214253 85 341 2.0 3.0 0.00 0.00 0.00 55 1004.9
20260505213750 86 340 2.0 3.0 0.00 0.00 0.00 54 1005.0
20260505213248 88 317 1.0 1.0 0.00 0.00 0.00 51 1005.0
20260505212743 89 350 1.0 2.0 0.00 0.00 0.00 49 1004.8
20260505212241 89 280 2.0 3.0 0.00 0.00 0.00 47 1004.8
20260505211738 88 340 2.0 2.0 0.00 0.00 0.00 47 1005.0
20260505211235 88 321 1.0 1.0 0.00 0.00 0.00 46 1004.9
20260505210731 89 317 2.0 3.0 0.00 0.00 0.00 45 1005.0
20260505210228 89 317 2.0 2.0 0.00 0.00 0.00 45 1005.1
20260505205726 88 186 2.0 3.0 0.00 0.00 0.00 49 1005.0
20260505205224 88 320 1.0 1.0 0.00 0.00 0.00 51 1005.0
20260505204720 89 328 2.0 2.0 0.00 0.00 0.00 46 1005.2
20260505204218 90 329 0.0 1.0 0.00 0.00 0.00 48 1005.2
20260505203715 90 242 2.0 5.0 0.00 0.00 0.00 50 1005.0
20260505203212 90 18 1.0 1.0 0.00 0.00 0.00 50 1005.1
20260505202707 90 216 1.0 3.0 0.00 0.00 0.00 54 1005.0
20260505202204 89 1 1.0 2.0 0.00 0.00 0.00 54 1005.1
20260505201700 88 151 3.0 3.0 0.00 0.00 0.00 55 1005.0
20260505201158 87 141 1.0 2.0 0.00 0.00 0.00 61 1005.2
20260505200656 87 246 3.0 3.0 0.00 0.00 0.00 60 1005.4
20260505200153 87 198 2.0 3.0 0.00 0.00 0.00 59 1005.3
20260505195649 87 321 3.0 5.0 0.00 0.00 0.00 61 1005.3
20260505195146 88 143 1.0 2.0 0.00 0.00 0.00 60 1005.2
20260505194643 88 144 2.0 3.0 0.00 0.00 0.00 61 1005.2
20260505194139 87 216 2.0 2.0 0.00 0.00 0.00 62 1005.3
20260505193636 86 184 3.0 3.0 0.00 0.00 0.00 62 1005.3
20260505193133 86 251 1.0 1.0 0.00 0.00 0.00 64 1005.5
20260505192632 86 157 3.0 5.0 0.00 0.00 0.00 63 1005.4
20260505192129 87 316 1.0 1.0 0.00 0.00 0.00 65 1005.2
20260505191627 87 311 2.0 2.0 0.00 0.00 0.00 62 1005.3
20260505191125 87 155 4.0 6.0 0.00 0.00 0.00 65 1005.1
20260505190620 86 157 3.0 6.0 0.00 0.00 0.00 64 1005.3
20260505190115 85 35 5.0 7.0 0.00 0.00 0.00 65 1005.1
20260505185613 84 115 4.0 5.0 0.00 0.00 0.00 66 1005.0
20260505185109 84 138 5.0 7.0 0.00 0.00 0.00 66 1005.2
20260505184605 84 180 5.0 6.0 0.00 0.00 0.00 65 1005.1
20260505184102 84 184 7.0 8.0 0.00 0.00 0.00 66 1005.1
20260505183559 84 166 8.0 10.0 0.00 0.00 0.00 66 1005.3
20260505183057 85 212 3.0 5.0 0.00 0.00 0.00 64 1005.5
20260505182553 85 194 2.0 2.0 0.00 0.00 0.00 66 1005.4
20260505182050 85 188 3.0 3.0 0.00 0.00 0.00 66 1005.3
20260505181546 84 76 5.0 7.0 0.00 0.00 0.00 65 1005.2
20260505181044 84 298 4.0 5.0 0.00 0.00 0.00 66 1005.4
20260505180539 83 194 2.0 3.0 0.00 0.00 0.00 67 1005.4
20260505180038 83 157 4.0 9.0 0.00 0.00 0.00 66 1005.6
20260505175537 84 167 9.0 15.0 0.00 0.00 0.00 66 1005.3
20260505175035 84 197 5.0 8.0 0.00 0.00 0.00 66 1005.4
20260505174531 83 141 2.0 3.0 0.00 0.00 0.00 70 1005.4
20260505174027 83 257 5.0 7.0 0.00 0.00 0.00 70 1005.4
20260505173524 82 154 4.0 6.0 0.00 0.00 0.00 70 1005.5
20260505173021 81 161 2.0 2.0 0.00 0.00 0.00 71 1005.4
20260505172519 81 287 1.0 2.0 0.00 0.00 0.00 72 1005.5
20260505172015 80 314 3.0 5.0 0.00 0.00 0.00 72 1005.3
20260505171510 80 173 10.0 14.0 0.00 0.00 0.00 71 1005.4
20260505171008 80 128 2.0 3.0 0.00 0.00 0.00 73 1005.3
20260505170504 80 199 5.0 7.0 0.00 0.00 0.00 73 1005.3
20260505170000 79 167 7.0 9.0 0.00 0.00 0.00 75 1005.3
20260505165456 79 198 7.0 8.0 0.00 0.00 0.00 76 1005.2
20260505164951 78 169 4.0 5.0 0.00 0.00 0.00 76 1005.4
20260505164448 78 224 6.0 7.0 0.00 0.00 0.00 76 1005.4
20260505163946 78 199 5.0 10.0 0.00 0.00 0.00 76 1005.4
20260505163445 78 260 5.0 7.0 0.00 0.00 0.00 76 1005.4
20260505162944 78 198 2.0 2.0 0.00 0.00 0.00 76 1005.3
20260505162439 77 206 5.0 8.0 0.00 0.00 0.00 76 1005.3
20260505161936 77 190 5.0 6.0 0.00 0.00 0.00 77 1005.2
20260505161432 77 143 5.0 7.0 0.00 0.00 0.00 77 1005.1
20260505160930 77 168 5.0 7.0 0.00 0.00 0.00 77 1005.3
20260505160428 77 210 5.0 8.0 0.00 0.00 0.00 77 1005.1
20260505152905 77 113 5.0 7.0 0.00 0.00 0.00 77 1005.0
20260505152403 77 184 9.0 14.0 0.00 0.00 0.00 76 1005.1
20260505151901 76 164 8.0 11.0 0.00 0.00 0.00 78 1004.7
20260505151358 76 161 5.0 8.0 0.00 0.00 0.00 78 1004.9
20260505150856 75 145 6.0 7.0 0.00 0.00 0.00 79 1005.0
20260505150353 75 170 5.0 8.0 0.00 0.00 0.00 80 1005.2
20260505140322 74 140 4.0 6.0 0.00 0.00 0.00 83 1004.7
20260505130246 71 169 4.0 6.0 0.00 0.00 0.00 86 1004.6
20260505124736 71 127 9.0 11.0 0.00 0.00 0.00 86 1004.5
20260505124233 71 157 6.0 7.0 0.00 0.00 0.00 87 1004.4
20260505123729 71 294 4.0 7.0 0.00 0.00 0.00 87 1004.4
20260505123226 71 194 5.0 7.0 0.00 0.00 0.00 87 1004.1
20260505122722 71 144 5.0 8.0 0.00 0.00 0.00 87 1004.0
20260505122220 71 152 4.0 6.0 0.00 0.00 0.00 86 1004.0
20260505121716 71 164 7.0 11.0 0.00 0.00 0.00 87 1004.0
20260505121213 71 222 6.0 8.0 0.00 0.00 0.00 87 1003.8
20260505120709 71 105 3.0 5.0 0.00 0.00 0.00 87 1004.0
20260505120205 71 263 5.0 8.0 0.00 0.00 0.00 87 1003.9
20260505115659 71 210 6.0 8.0 0.00 0.00 0.00 87 1004.1
20260505115157 71 153 4.0 8.0 0.00 0.00 0.00 87 1004.0
20260505114654 70 161 6.0 9.0 0.00 0.00 0.00 87 1003.8
20260505114150 71 182 3.0 3.0 0.00 0.00 0.00 87 1004.0
20260505113646 70 142 3.0 5.0 0.00 0.00 0.00 87 1003.7
20260505113143 70 184 6.0 9.0 0.00 0.00 0.00 87 1003.8
20260505112640 70 206 3.0 3.0 0.00 0.00 0.00 87 1003.7
20260505112138 70 194 6.0 7.0 0.00 0.00 0.00 87 1003.7
20260505111637 70 182 4.0 6.0 0.00 0.00 0.00 87 1003.8
20260505111133 70 300 3.0 3.0 0.00 0.00 0.00 87 1003.6
20260505110629 70 186 7.0 11.0 0.00 0.00 0.00 87 1003.7
20260505110127 70 151 3.0 7.0 0.00 0.00 0.00 87 1003.7
20260505102102 71 193 4.0 5.0 0.00 0.00 0.00 86 1003.8
20260505101601 71 128 3.0 5.0 0.00 0.00 0.00 86 1003.9
20260505101057 71 208 3.0 3.0 0.00 0.00 0.00 86 1003.9
20260505100553 71 170 4.0 7.0 0.00 0.00 0.00 85 1004.1
20260505100050 71 168 10.0 15.0 0.00 0.00 0.00 85 1003.8
20260505095547 71 205 4.0 6.0 0.00 0.00 0.00 85 1003.9
20260505095043 71 217 7.0 8.0 0.00 0.00 0.00 85 1003.8
20260505094539 72 124 6.0 8.0 0.00 0.00 0.00 84 1003.8
20260505094036 72 111 5.0 7.0 0.00 0.00 0.00 84 1003.8
20260505093533 72 143 5.0 6.0 0.00 0.00 0.00 84 1003.8
20260505093030 72 192 7.0 8.0 0.00 0.00 0.00 84 1003.8
20260505092527 72 180 9.0 10.0 0.00 0.00 0.00 84 1004.0
20260505092026 72 165 6.0 7.0 0.00 0.00 0.00 84 1004.0
20260505091522 72 168 6.0 7.0 0.00 0.00 0.00 83 1004.2
20260505091020 72 193 5.0 7.0 0.00 0.00 0.00 83 1004.1
20260505090518 72 193 7.0 9.0 0.00 0.00 0.00 83 1004.3
20260505090016 72 157 5.0 7.0 0.00 0.00 0.00 83 1004.5
20260505085513 72 262 7.0 10.0 0.00 0.00 0.00 83 1004.3
20260505085011 72 189 7.0 10.0 0.00 0.00 0.00 82 1004.2
20260505084509 73 160 5.0 6.0 0.00 0.00 0.00 82 1004.1
20260505084007 73 132 7.0 9.0 0.00 0.00 0.00 81 1004.3
20260505083504 73 182 8.0 9.0 0.00 0.00 0.00 81 1004.3
20260505083000 73 129 5.0 6.0 0.00 0.00 0.00 81 1004.2
20260505082456 73 168 5.0 7.0 0.00 0.00 0.00 80 1004.1
20260505081953 73 167 6.0 9.0 0.00 0.00 0.00 80 1004.3
20260505081450 73 134 6.0 9.0 0.00 0.00 0.00 79 1004.3
20260505080946 73 123 4.0 9.0 0.00 0.00 0.00 79 1004.5
20260505080442 73 182 4.0 7.0 0.00 0.00 0.00 78 1004.4
20260505075938 73 133 5.0 6.0 0.00 0.00 0.00 78 1004.2
20260505075435 73 171 5.0 7.0 0.00 0.00 0.00 78 1004.5
20260505074932 73 121 4.0 5.0 0.00 0.00 0.00 78 1004.5
20260505074430 74 210 5.0 7.0 0.00 0.00 0.00 77 1004.6
20260505073927 74 147 3.0 6.0 0.00 0.00 0.00 77 1004.6
20260505073425 74 181 5.0 8.0 0.00 0.00 0.00 77 1004.8
20260505072921 74 166 11.0 14.0 0.00 0.00 0.00 76 1004.8
20260505072418 74 209 8.0 11.0 0.00 0.00 0.00 76 1005.1
20260505071914 74 181 5.0 7.0 0.00 0.00 0.00 76 1005.2
20260505071410 74 202 5.0 6.0 0.00 0.00 0.00 75 1005.3
20260505070908 74 210 9.0 10.0 0.00 0.00 0.00 75 1005.2
20260505070404 74 154 4.0 6.0 0.00 0.00 0.00 74 1005.3
20260505065900 74 126 3.0 5.0 0.00 0.00 0.00 74 1005.4
20260505065357 75 166 7.0 7.0 0.00 0.00 0.00 74 1005.4
20260505064854 75 150 7.0 9.0 0.00 0.00 0.00 73 1005.4
20260505064351 75 163 5.0 8.0 0.00 0.00 0.00 74 1005.5
20260505063849 75 162 5.0 6.0 0.00 0.00 0.00 73 1005.5
20260505063345 75 172 7.0 8.0 0.00 0.00 0.00 73 1005.6
20260505062842 75 211 5.0 7.0 0.00 0.00 0.00 73 1005.8
20260505062339 75 194 7.0 9.0 0.00 0.00 0.00 72 1005.5
20260505061836 75 80 6.0 9.0 0.00 0.00 0.00 73 1005.9
20260505061334 75 145 5.0 6.0 0.00 0.00 0.00 73 1006.1
20260505060831 75 187 6.0 6.0 0.00 0.00 0.00 72 1005.9
20260505060328 75 132 5.0 6.0 0.00 0.00 0.00 73 1006.1
20260505055824 75 182 4.0 6.0 0.00 0.00 0.00 74 1006.0
20260505055320 75 195 5.0 8.0 0.00 0.00 0.00 74 1005.9
20260505054817 75 87 5.0 7.0 0.00 0.00 0.00 74 1005.9
20260505054314 75 163 5.0 7.0 0.00 0.00 0.00 74 1005.9
20260505053813 74 131 3.0 7.0 0.00 0.00 0.00 74 1005.9
20260505053309 74 217 3.0 3.0 0.00 0.00 0.00 75 1006.0
20260505052806 74 170 4.0 5.0 0.00 0.00 0.00 75 1005.9
20260505052304 74 197 7.0 10.0 0.00 0.00 0.00 75 1006.1
20260505051800 74 180 4.0 5.0 0.00 0.00 0.00 75 1005.8
20260505051258 75 142 3.0 3.0 0.00 0.00 0.00 75 1006.0
20260505050755 74 198 5.0 6.0 0.00 0.00 0.00 74 1006.2
20260505050254 75 139 5.0 6.0 0.00 0.00 0.00 74 1006.2
20260505041723 75 183 5.0 8.0 0.00 0.00 0.00 73 1006.1
20260505041221 75 157 5.0 6.0 0.00 0.00 0.00 73 1006.1
20260505040718 75 142 6.0 10.0 0.00 0.00 0.00 73 1006.2
20260505040215 75 167 8.0 13.0 0.00 0.00 0.00 72 1006.2
20260505035712 75 157 6.0 8.0 0.00 0.00 0.00 72 1006.4
20260505035208 75 178 7.0 9.0 0.00 0.00 0.00 72 1006.1
20260505034705 75 163 5.0 6.0 0.00 0.00 0.00 73 1006.4
20260505034202 75 162 7.0 9.0 0.00 0.00 0.00 72 1006.2
20260505033658 75 201 4.0 6.0 0.00 0.00 0.00 73 1006.1
20260505033156 75 142 5.0 7.0 0.00 0.00 0.00 72 1006.2
20260505032654 75 161 5.0 6.0 0.00 0.00 0.00 72 1006.3
20260505032155 75 148 4.0 7.0 0.00 0.00 0.00 72 1006.1
20260505031652 75 114 5.0 7.0 0.00 0.00 0.00 72 1006.4
20260505031148 75 143 4.0 6.0 0.00 0.00 0.00 72 1006.4
20260505030646 75 225 5.0 6.0 0.00 0.00 0.00 72 1006.2
20260505030141 75 168 5.0 7.0 0.00 0.00 0.00 72 1006.3
20260505025637 75 139 6.0 8.0 0.00 0.00 0.00 71 1006.2
20260505025136 75 166 6.0 8.0 0.00 0.00 0.00 71 1006.1
20260505024633 76 160 5.0 6.0 0.00 0.00 0.00 71 1006.3
20260505024130 76 128 4.0 5.0 0.00 0.00 0.00 71 1006.5
20260505023628 76 165 5.0 6.0 0.00 0.00 0.00 71 1006.4
20260505023125 75 223 6.0 7.0 0.00 0.00 0.00 71 1006.4
20260505022623 75 151 4.0 5.0 0.00 0.00 0.00 72 1006.2
20260505022119 75 195 4.0 5.0 0.00 0.00 0.00 71 1006.4
20260505021616 76 193 6.0 10.0 0.00 0.00 0.00 70 1006.3
20260505021113 76 169 6.0 8.0 0.00 0.00 0.00 71 1006.2
20260505020608 76 163 8.0 10.0 0.00 0.00 0.00 70 1006.2
20260505020105 76 161 6.0 7.0 0.00 0.00 0.00 70 1006.3
20260505015602 76 179 7.0 13.0 0.00 0.00 0.00 70 1006.1
20260505015058 76 183 7.0 8.0 0.00 0.00 0.00 70 1006.2
20260505014555 76 155 4.0 5.0 0.00 0.00 0.00 70 1006.1
20260505014052 76 131 4.0 5.0 0.00 0.00 0.00 70 1006.4
20260505013549 76 166 4.0 5.0 0.00 0.00 0.00 70 1006.2
20260505013047 76 135 4.0 6.0 0.00 0.00 0.00 69 1006.4
20260505012545 76 187 8.0 13.0 0.00 0.00 0.00 69 1006.3
20260505012042 76 129 5.0 6.0 0.00 0.00 0.00 69 1006.2
20260505011537 77 145 7.0 8.0 0.00 0.00 0.00 69 1006.2
20260505011035 77 142 5.0 7.0 0.00 0.00 0.00 69 1006.1
20260505010530 77 175 7.0 9.0 0.00 0.00 0.00 68 1006.1
20260505010027 77 188 5.0 7.0 0.00 0.00 0.00 68 1006.1
20260505005523 77 169 9.0 11.0 0.00 0.00 0.00 68 1006.1
20260505005021 77 184 7.0 8.0 0.00 0.00 0.00 68 1006.0
20260505004517 77 185 5.0 9.0 0.00 0.00 0.00 68 1006.0
20260505004014 77 190 6.0 7.0 0.00 0.00 0.00 67 1006.1
20260505003511 77 186 8.0 11.0 0.00 0.00 0.00 67 1006.2
20260505003009 77 187 7.0 9.0 0.00 0.00 0.00 67 1006.2
20260505002503 77 168 7.0 10.0 0.00 0.00 0.00 67 1006.1
20260505002002 78 167 6.0 8.0 0.00 0.00 0.00 66 1006.2
20260505001459 78 96 7.0 8.0 0.00 0.00 0.00 66 1006.3
20260505000956 78 150 5.0 8.0 0.00 0.00 0.00 66 1006.4
20260505000454 78 164 7.0 8.0 0.00 0.00 0.00 66 1006.6
20260504235951 78 163 5.0 8.0 0.00 0.00 0.00 66 1006.4
20260504235448 79 187 7.0 8.0 0.00 0.00 0.00 65 1006.4
20260504234944 79 196 6.0 8.0 0.00 0.00 0.00 65 1006.4
20260504234442 79 189 7.0 9.0 0.00 0.00 0.00 64 1006.5
20260504233938 79 162 8.0 9.0 0.00 0.00 0.00 64 1006.5
20260504233434 79 150 9.0 11.0 0.00 0.00 0.00 64 1006.2
20260504232931 80 162 5.0 6.0 0.00 0.00 0.00 64 1006.3
20260504232428 79 200 5.0 8.0 0.00 0.00 0.00 64 1006.5
20260504231925 80 141 8.0 11.0 0.00 0.00 0.00 63 1006.7
20260504231421 80 172 7.0 8.0 0.00 0.00 0.00 63 1006.4
20260504230918 80 133 6.0 8.0 0.00 0.00 0.00 63 1006.4